Date String (YYYY-MM-DD hh:mm:ss) UTC,Instrument flags,absolute air pressure of the measurement (hPa),sample flow rate (lpm),inlet stack bypass flow (lpm),air temperature of the measurement (°C),ambient temperature measured by the external sensor (°C),aerosol sample conditioner tube jacket temperature (°C),OPC LED temperature (°C),internal box temperature (°C),relative humidity of the measurement (%),span deviation,mass concentration of particles derived from Lorenz-Mie calculation of OPC scattering (μg/m³),mass concentration of particles derived from Lorenz-Mie calculation of OPC scattering (μg/m³),mass concentration of particles derived from Lorenz-Mie calculation of OPC scattering (μg/m³)
DateTimeUTC,F1_M11,P_M11,Q1_M11,Q2_M11,T1_M11,T2_M11,T3_M11,T4_M11,T5_M11,U1_M11,ZSPAN_M11,X2_M11,X0_M11,X1_M11
2023-06-12 00:00:00,SystemResetWarning,0830.9,5.00,000.00,030.0,028.7,000.0,038.4,031.6,29.7,0000.0,0004.64,0007.92,0004.09
2023-06-12 00:01:00,SystemResetWarning,0830.9,4.99,000.00,030.1,028.7,000.0,038.5,031.6,30.8,0000.0,0004.61,0007.95,0004.07
2023-06-12 00:02:00,SystemResetWarning,0830.9,4.99,000.00,030.1,028.7,000.0,038.5,031.7,30.8,0000.0,0004.62,0008.28,0004.05
2023-06-12 00:03:00,SystemResetWarning,0830.9,5.00,000.00,030.1,027.5,000.0,038.5,031.7,30.2,0000.0,0004.60,0008.19,0004.04
2023-06-12 00:04:00,SystemResetWarning,0830.9,5.01,000.00,030.1,025.5,000.0,038.4,031.6,29.5,0000.0,0004.59,0008.26,0004.03
2023-06-12 00:05:00,SystemResetWarning,0830.9,5.01,000.00,030.0,025.1,000.0,038.4,031.4,29.5,0000.0,0004.60,0008.28,0004.04
2023-06-12 00:06:00,SystemResetWarning,0830.9,5.00,000.00,029.9,025.3,000.0,038.4,031.1,30.0,0000.0,0004.58,0008.18,0004.06
2023-06-12 00:07:00,SystemResetWarning,0830.9,4.99,000.00,029.8,025.7,000.0,038.4,031.0,30.3,0000.0,0004.63,0008.36,0004.08
2023-06-12 00:08:00,SystemResetWarning,0830.9,5.01,000.00,029.7,026.1,000.0,038.4,031.0,31.0,0000.0,0004.65,0008.41,0004.10
2023-06-12 00:09:00,SystemResetWarning,0830.9,5.00,000.00,029.7,026.5,000.0,038.4,031.1,31.7,0000.0,0004.63,0008.35,0004.09
2023-06-12 00:10:00,SystemResetWarning,0830.9,5.00,000.00,029.7,026.9,000.0,038.3,031.1,31.5,0000.0,0004.66,0008.44,0004.10
2023-06-12 00:11:00,SystemResetWarning,0831.0,5.00,000.00,029.7,027.1,000.0,038.3,031.1,31.2,0000.0,0004.68,0008.61,0004.11
2023-06-12 00:12:00,SystemResetWarning,0831.0,5.00,000.00,029.7,027.4,000.0,038.3,031.1,31.0,0000.0,0004.71,0009.04,0004.14
2023-06-12 00:13:00,SystemResetWarning,0831.1,5.00,000.00,029.7,027.6,000.0,038.3,031.2,30.4,0000.0,0004.71,0008.63,0004.16
2023-06-12 00:14:00,SystemResetWarning,0831.1,5.00,000.00,029.7,027.8,000.0,038.3,031.2,30.5,0000.0,0004.69,0008.61,0004.17
2023-06-12 00:15:00,SystemResetWarning,0831.1,4.99,000.00,029.7,027.9,000.0,038.3,031.3,30.4,0000.0,0004.68,0008.53,0004.18
2023-06-12 00:16:00,SystemResetWarning,0831.1,5.00,000.00,029.7,028.0,000.0,038.3,031.3,30.4,0000.0,0004.65,0008.60,0004.16
2023-06-12 00:17:00,SystemResetWarning,0831.1,5.01,000.00,029.7,028.1,000.0,038.3,031.3,30.1,0000.0,0004.67,0009.00,0004.15
2023-06-12 00:18:00,SystemResetWarning,0831.1,5.01,000.00,029.8,028.2,000.0,038.3,031.3,30.2,0000.0,0004.65,0008.90,0004.15
2023-06-12 00:19:00,SystemResetWarning,0831.2,4.99,000.00,029.8,028.2,000.0,038.3,031.3,30.1,0000.0,0004.62,0008.82,0004.15
2023-06-12 00:20:00,SystemResetWarning,0831.1,5.00,000.00,029.8,028.3,000.0,038.3,031.4,30.4,0000.0,0004.64,0009.11,0004.15
2023-06-12 00:21:00,SystemResetWarning,0831.2,4.99,000.00,029.8,028.3,000.0,038.3,031.4,30.3,0000.0,0004.60,0009.19,0004.16
2023-06-12 00:22:00,SystemResetWarning,0831.1,5.00,000.00,029.8,028.4,000.0,038.3,031.4,30.3,0000.0,0004.62,0009.31,0004.16
2023-06-12 00:23:00,SystemResetWarning,0831.1,5.00,000.00,029.9,028.4,000.0,038.4,031.4,30.6,0000.0,0004.61,0009.05,0004.16
2023-06-12 00:24:00,SystemResetWarning,0831.2,5.01,000.00,029.9,028.4,000.0,038.4,031.5,31.3,0000.0,0004.61,0009.04,0004.15
2023-06-12 00:25:00,SystemResetWarning,0831.3,5.00,000.00,029.9,028.5,000.0,038.4,031.5,32.2,0000.0,0004.61,0009.01,0004.14
2023-06-12 00:26:00,SystemResetWarning,0831.2,4.99,000.00,029.9,028.5,000.0,038.4,031.5,31.2,0000.0,0004.62,0009.10,0004.14
2023-06-12 00:27:00,SystemResetWarning,0831.2,4.99,000.00,029.9,028.5,000.0,038.4,031.5,30.4,0000.0,0004.63,0008.93,0004.16
2023-06-12 00:28:00,SystemResetWarning,0831.3,4.99,000.00,030.0,028.6,000.0,038.4,031.5,30.6,0000.0,0004.60,0008.47,0004.15
2023-06-12 00:29:00,SystemResetWarning,0831.3,5.00,000.00,030.0,028.6,000.0,038.4,031.6,30.5,0000.0,0004.62,0008.48,0004.15
2023-06-12 00:30:00,SystemResetWarning,0831.3,4.99,000.00,030.0,027.8,000.0,038.4,031.6,29.6,0000.0,0004.64,0008.66,0004.14
2023-06-12 00:31:00,SystemResetWarning,0831.3,5.00,000.00,030.0,025.7,000.0,038.4,031.5,29.5,0000.0,0004.64,0008.48,0004.14
2023-06-12 00:32:00,SystemResetWarning,0831.3,5.00,000.00,030.0,025.0,000.0,038.4,031.4,29.8,0000.0,0004.65,0008.26,0004.13
2023-06-12 00:33:00,SystemResetWarning,0831.3,5.01,000.00,029.9,025.2,000.0,038.3,031.2,29.9,0000.0,0004.66,0008.07,0004.14
2023-06-12 00:34:00,SystemResetWarning,0831.3,5.01,000.00,029.8,025.6,000.0,038.3,031.0,29.8,0000.0,0004.64,0008.02,0004.14
2023-06-12 00:35:00,SystemResetWarning,0831.3,5.00,000.00,029.7,026.0,000.0,038.3,031.0,29.4,0000.0,0004.64,0008.13,0004.15
2023-06-12 00:36:00,SystemResetWarning,0831.3,5.00,000.00,029.7,026.4,000.0,038.3,031.0,29.7,0000.0,0004.68,0008.34,0004.18
2023-06-12 00:37:00,SystemResetWarning,0831.3,5.00,000.00,029.6,026.7,000.0,038.3,031.0,30.0,0000.0,0004.66,0008.43,0004.17
2023-06-12 00:38:00,SystemResetWarning,0831.2,5.00,000.00,029.6,027.0,000.0,038.3,031.0,30.1,0000.0,0004.66,0008.58,0004.16
2023-06-12 00:39:00,SystemResetWarning,0831.2,5.00,000.00,029.6,027.3,000.0,038.2,031.1,30.3,0000.0,0004.70,0008.74,0004.18
2023-06-12 00:40:00,SystemResetWarning,0831.2,5.00,000.00,029.6,027.5,000.0,038.2,031.1,30.4,0000.0,0004.68,0008.70,0004.19
2023-06-12 00:41:00,SystemResetWarning,0831.3,5.00,000.00,029.6,027.7,000.0,038.2,031.1,31.0,0000.0,0004.63,0008.49,0004.18
2023-06-12 00:42:00,SystemResetWarning,0831.3,4.99,000.00,029.7,027.8,000.0,038.2,031.2,31.2,0000.0,0004.63,0008.42,0004.18
2023-06-12 00:43:00,SystemResetWarning,0831.2,5.00,000.00,029.7,027.9,000.0,038.2,031.2,30.5,0000.0,0004.62,0008.38,0004.18
2023-06-12 00:44:00,SystemResetWarning,0831.3,5.00,000.00,029.7,028.0,000.0,038.2,031.3,29.7,0000.0,0004.67,0008.59,0004.20
2023-06-12 00:45:00,SystemResetWarning,0831.2,5.00,000.00,029.7,028.1,000.0,038.2,031.3,29.8,0000.0,0004.73,0008.65,0004.23
2023-06-12 00:46:00,SystemResetWarning,0831.2,5.00,000.00,029.7,028.1,000.0,038.2,031.3,30.4,0000.0,0004.74,0008.44,0004.24
2023-06-12 00:47:00,SystemResetWarning,0831.3,5.00,000.00,029.7,028.2,000.0,038.2,031.3,30.2,0000.0,0004.74,0008.28,0004.25
2023-06-12 00:48:00,SystemResetWarning,0831.2,5.00,000.00,029.7,028.2,000.0,038.3,031.3,30.0,0000.0,0004.79,0008.17,0004.29
2023-06-12 00:49:00,SystemResetWarning,0831.2,4.99,000.00,029.8,028.3,000.0,038.3,031.3,29.7,0000.0,0004.81,0008.02,0004.30
2023-06-12 00:50:00,SystemResetWarning,0831.2,5.01,000.00,029.8,028.3,000.0,038.3,031.4,29.7,0000.0,0004.81,0007.96,0004.31
2023-06-12 00:51:00,SystemResetWarning,0831.3,5.00,000.00,029.8,028.3,000.0,038.3,031.4,30.3,0000.0,0004.84,0007.99,0004.33
2023-06-12 00:52:00,SystemResetWarning,0831.3,5.00,000.00,029.8,028.4,000.0,038.3,031.4,29.9,0000.0,0004.88,0008.06,0004.36
2023-06-12 00:53:00,SystemResetWarning,0831.3,5.01,000.00,029.8,028.4,000.0,038.3,031.4,29.6,0000.0,0004.90,0008.10,0004.39
2023-06-12 00:54:00,SystemResetWarning,0831.3,4.99,000.00,029.8,028.4,000.0,038.3,031.4,29.6,0000.0,0004.91,0008.07,0004.40
2023-06-12 00:55:00,SystemResetWarning,0831.2,5.00,000.00,029.8,028.4,000.0,038.3,031.4,29.8,0000.0,0004.91,0007.99,0004.41
2023-06-12 00:56:00,SystemResetWarning,0831.2,4.99,000.00,029.9,028.4,000.0,038.4,031.4,29.6,0000.0,0004.85,0007.76,0004.39
2023-06-12 00:57:00,SystemResetWarning,0831.2,5.00,000.00,029.9,028.4,000.0,038.4,031.5,29.8,0000.0,0004.85,0008.33,0004.39
2023-06-12 00:58:00,SystemResetWarning,0831.3,4.99,000.00,029.9,028.4,000.0,038.4,031.5,30.0,0000.0,0004.86,0008.54,0004.38
2023-06-12 00:59:00,SystemResetWarning,0831.3,5.01,000.00,029.9,028.5,000.0,038.4,031.5,30.3,0000.0,0004.85,0008.61,0004.36
